Time,TemperatureF,DewpointF,PressureIn,WindDirection,WindDirectionDegrees,WindSpeedMPH,WindSpeedGustMPH,Humidity,HourlyPrecipIn,Conditions,Clouds,dailyrainin,SolarRadiationWatts/m^2,SoftwareType,DateUTC
2013-06-28 00:00:00,69.7,68.5,29.62,WSW,239,0.0,5.0,96,0.00,,---,0.44,0.00,VWS V14.00,2013-06-28 04:00:00,
2013-06-28 00:01:00,69.6,68.7,29.61,West,263,0.0,3.0,97,0.00,,---,0.44,0.00,VWS V14.00,2013-06-28 04:01:00,
2013-06-28 00:02:00,69.5,68.6,29.61,West,263,0.0,0.0,97,0.00,,---,0.00,0.00,VWS V14.00,2013-06-28 04:02:00,
2013-06-28 00:07:00,69.5,68.6,29.61,West,263,0.0,0.0,97,0.00,,---,0.00,0.00,VWS V14.00,2013-06-28 04:07:00,
2013-06-28 00:12:00,69.5,68.6,29.61,West,263,0.0,0.0,97,0.00,,---,0.00,0.00,VWS V14.00,2013-06-28 04:12:00,
2013-06-28 00:17:00,69.5,68.6,29.60,West,263,0.0,0.0,97,0.00,,---,0.00,0.00,VWS V14.00,2013-06-28 04:17:00,
2013-06-28 00:22:00,69.4,68.5,29.60,West,263,0.0,0.0,97,0.00,,---,0.00,0.00,VWS V14.00,2013-06-28 04:22:00,
2013-06-28 00:28:00,69.3,68.4,29.60,West,263,0.0,0.0,97,0.00,,---,0.00,0.00,VWS V14.00,2013-06-28 04:28:00,
2013-06-28 00:30:00,69.7,68.8,29.62,WSW,249,0.0,5.0,97,0.00,,---,0.44,0.00,VWS V14.00,2013-06-28 04:30:00,
2013-06-28 00:33:00,69.3,68.4,29.60,West,263,0.0,0.0,97,0.00,,---,0.00,0.00,VWS V14.00,2013-06-28 04:33:00,
2013-06-28 00:38:00,69.2,68.3,29.60,West,263,0.0,0.0,97,0.00,,---,0.00,0.00,VWS V14.00,2013-06-28 04:38:00,
2013-06-28 00:43:00,69.2,68.3,29.60,West,263,0.0,0.0,97,0.00,,---,0.00,0.00,VWS V14.00,2013-06-28 04:43:00,
2013-06-28 00:48:00,69.2,68.3,29.60,West,263,0.0,0.0,97,0.00,,---,0.00,0.00,VWS V14.00,2013-06-28 04:48:00,
2013-06-28 00:53:00,69.2,68.3,29.60,West,263,0.0,0.0,97,0.00,,---,0.00,0.00,VWS V14.00,2013-06-28 04:53:00,
2013-06-28 00:58:00,69.1,68.2,29.60,West,263,0.0,0.0,97,0.00,,---,0.00,0.00,VWS V14.00,2013-06-28 04:58:00,
2013-06-28 01:00:00,69.5,68.6,29.62,West,263,0.0,3.0,97,0.00,,---,0.00,0.00,VWS V14.00,2013-06-28 05:00:00,
2013-06-28 01:03:00,69.0,68.1,29.60,West,263,0.0,0.0,97,0.00,,---,0.00,0.00,VWS V14.00,2013-06-28 05:03:00,
2013-06-28 01:08:00,69.0,68.1,29.60,West,263,0.0,0.0,97,0.00,,---,0.00,0.00,VWS V14.00,2013-06-28 05:08:00,
2013-06-28 01:13:00,69.0,68.1,29.60,West,263,0.0,0.0,97,0.00,,---,0.00,0.00,VWS V14.00,2013-06-28 05:13:00,
2013-06-28 01:18:00,68.9,68.0,29.60,West,263,0.0,0.0,97,0.00,,---,0.00,0.00,VWS V14.00,2013-06-28 05:18:00,
2013-06-28 01:23:00,69.0,68.4,29.59,West,263,0.0,0.0,98,0.00,,---,0.00,0.00,VWS V14.00,2013-06-28 05:23:00,
2013-06-28 01:28:00,69.0,68.4,29.60,West,263,0.0,0.0,98,0.00,,---,0.00,0.00,VWS V14.00,2013-06-28 05:28:00,
2013-06-28 01:30:00,69.3,68.4,29.60,West,263,0.0,0.0,97,0.00,,---,0.00,0.00,VWS V14.00,2013-06-28 05:30:00,
2013-06-28 01:33:00,69.0,68.4,29.59,West,263,0.0,0.0,98,0.00,,---,0.00,0.00,VWS V14.00,2013-06-28 05:33:00,
2013-06-28 01:38:00,69.1,68.5,29.60,West,263,0.0,0.0,98,0.00,,---,0.00,0.00,VWS V14.00,2013-06-28 05:38:00,
2013-06-28 01:43:00,69.1,68.5,29.60,West,263,0.0,0.0,98,0.00,,---,0.00,0.00,VWS V14.00,2013-06-28 05:43:00,
2013-06-28 01:48:00,69.1,68.5,29.59,West,263,0.0,0.0,98,0.00,,---,0.00,0.00,VWS V14.00,2013-06-28 05:48:00,
2013-06-28 01:53:00,69.1,68.5,29.59,West,263,0.0,0.0,98,0.00,,---,0.00,0.00,VWS V14.00,2013-06-28 05:53:00,
2013-06-28 01:58:00,69.2,68.6,29.59,West,263,0.0,0.0,98,0.00,,---,0.00,0.00,VWS V14.00,2013-06-28 05:58:00,
2013-06-28 02:00:00,69.1,68.2,29.60,West,263,0.0,0.0,97,0.00,,---,0.00,0.00,VWS V14.00,2013-06-28 06:00:00,
2013-06-28 02:03:00,69.1,68.5,29.59,West,263,0.0,0.0,98,0.00,,---,0.00,0.00,VWS V14.00,2013-06-28 06:03:00,
2013-06-28 02:08:00,69.1,68.5,29.59,West,263,0.0,0.0,98,0.00,,---,0.00,0.00,VWS V14.00,2013-06-28 06:08:00,
2013-06-28 02:13:00,69.1,68.5,29.59,West,263,0.0,0.0,98,0.00,,---,0.00,0.00,VWS V14.00,2013-06-28 06:13:00,
2013-06-28 02:18:00,69.0,68.4,29.59,West,263,0.0,0.0,98,0.00,,---,0.00,0.00,VWS V14.00,2013-06-28 06:18:00,
2013-06-28 02:23:00,69.0,68.4,29.59,West,263,0.0,0.0,98,0.00,,---,0.00,0.00,VWS V14.00,2013-06-28 06:23:00,
2013-06-28 02:28:00,69.0,68.4,29.58,West,263,0.0,0.0,98,0.00,,---,0.00,0.00,VWS V14.00,2013-06-28 06:28:00,
2013-06-28 02:30:00,69.0,68.4,29.59,West,263,0.0,0.0,98,0.00,,---,0.00,0.00,VWS V14.00,2013-06-28 06:30:00,
2013-06-28 02:33:00,69.0,68.4,29.59,West,263,0.0,0.0,98,0.00,,---,0.00,0.00,VWS V14.00,2013-06-28 06:33:00,
2013-06-28 02:38:00,69.0,68.4,29.58,West,263,0.0,0.0,98,0.00,,---,0.00,0.00,VWS V14.00,2013-06-28 06:38:00,
2013-06-28 02:43:00,69.0,68.4,29.59,West,263,0.0,0.0,98,0.00,,---,0.00,0.00,VWS V14.00,2013-06-28 06:43:00,
2013-06-28 02:48:00,69.0,68.4,29.59,West,263,0.0,0.0,98,0.00,,---,0.00,0.00,VWS V14.00,2013-06-28 06:48:00,
2013-06-28 02:53:00,69.0,68.4,29.59,West,263,0.0,0.0,98,0.00,,---,0.00,0.00,VWS V14.00,2013-06-28 06:53:00,
2013-06-28 02:58:00,69.0,68.4,29.58,West,263,0.0,0.0,98,0.00,,---,0.00,0.00,VWS V14.00,2013-06-28 06:58:00,
2013-06-28 03:00:00,69.2,68.6,29.59,West,263,0.0,0.0,98,0.00,,---,0.00,0.00,VWS V14.00,2013-06-28 07:00:00,
2013-06-28 03:03:00,69.0,68.4,29.58,West,263,0.0,0.0,98,0.00,,---,0.00,0.00,VWS V14.00,2013-06-28 07:03:00,
2013-06-28 03:08:00,69.0,68.4,29.58,West,263,0.0,0.0,98,0.00,,---,0.00,0.00,VWS V14.00,2013-06-28 07:08:00,
2013-06-28 03:13:00,69.0,68.4,29.58,West,263,0.0,0.0,98,0.00,,---,0.00,0.00,VWS V14.00,2013-06-28 07:13:00,
2013-06-28 03:18:00,69.0,68.4,29.57,West,263,0.0,0.0,98,0.00,,---,0.00,0.00,VWS V14.00,2013-06-28 07:18:00,
2013-06-28 03:23:00,69.1,68.5,29.58,West,263,1.0,4.0,98,0.00,,---,0.00,0.00,VWS V14.00,2013-06-28 07:23:00,
2013-06-28 03:28:00,69.2,68.6,29.58,West,263,0.0,4.0,98,0.34,,---,0.02,0.00,VWS V14.00,2013-06-28 07:28:00,
2013-06-28 03:30:00,69.0,68.4,29.58,West,263,0.0,0.0,98,0.00,,---,0.00,0.00,VWS V14.00,2013-06-28 07:30:00,
2013-06-28 03:33:00,69.2,68.6,29.58,West,263,0.0,2.0,98,0.35,,---,0.04,0.00,VWS V14.00,2013-06-28 07:33:00,
2013-06-28 03:38:00,69.2,68.6,29.57,ESE,117,2.0,5.0,98,0.36,,---,0.06,0.00,VWS V14.00,2013-06-28 07:38:00,
2013-06-28 03:43:00,69.1,68.5,29.57,NNW,327,4.0,6.0,98,0.37,,---,0.08,0.00,VWS V14.00,2013-06-28 07:43:00,
2013-06-28 03:48:00,69.0,68.4,29.58,NNW,336,2.0,8.0,98,0.39,,---,0.10,0.00,VWS V14.00,2013-06-28 07:48:00,
2013-06-28 03:53:00,68.6,68.0,29.57,NE,38,0.0,8.0,98,0.40,,---,0.12,0.00,VWS V14.00,2013-06-28 07:53:00,
2013-06-28 03:58:00,68.2,67.3,29.58,NE,38,0.0,8.0,97,0.40,,---,0.14,0.00,VWS V14.00,2013-06-28 07:58:00,
2013-06-28 04:00:00,69.0,68.4,29.58,West,263,0.0,0.0,98,0.00,,---,0.00,0.00,VWS V14.00,2013-06-28 08:00:00,
2013-06-28 04:03:00,67.9,67.3,29.58,NE,34,0.0,1.0,98,0.39,,---,0.16,0.00,VWS V14.00,2013-06-28 08:03:00,
2013-06-28 04:08:00,67.8,67.2,29.58,NE,34,0.0,1.0,98,0.37,,---,0.18,0.00,VWS V14.00,2013-06-28 08:08:00,
2013-06-28 04:13:00,67.8,67.2,29.58,NE,34,0.0,1.0,98,0.14,,---,0.19,0.00,VWS V14.00,2013-06-28 08:13:00,
2013-06-28 04:18:00,67.7,67.1,29.57,NE,34,0.0,1.0,98,0.14,,---,0.20,0.00,VWS V14.00,2013-06-28 08:18:00,
2013-06-28 04:23:00,67.8,67.2,29.57,NE,34,0.0,1.0,98,0.23,,---,0.22,0.00,VWS V14.00,2013-06-28 08:23:00,
2013-06-28 04:28:00,67.7,67.1,29.57,NE,34,0.0,1.0,98,0.29,,---,0.24,0.00,VWS V14.00,2013-06-28 08:28:00,
2013-06-28 04:30:00,69.2,68.6,29.58,West,263,0.0,4.0,98,0.15,,---,0.03,0.00,VWS V14.00,2013-06-28 08:30:00,
2013-06-28 04:33:00,67.7,67.1,29.57,NE,34,0.0,0.0,98,0.11,,---,0.24,0.00,VWS V14.00,2013-06-28 08:33:00,
2013-06-28 04:38:00,67.6,67.0,29.57,NE,34,0.0,0.0,98,0.25,,---,0.26,0.00,VWS V14.00,2013-06-28 08:38:00,
2013-06-28 04:43:00,67.6,67.0,29.57,NE,34,0.0,0.0,98,0.09,,---,0.26,0.00,VWS V14.00,2013-06-28 08:43:00,
2013-06-28 04:49:00,67.6,67.0,29.58,NE,34,0.0,2.0,98,0.16,,---,0.28,0.00,VWS V14.00,2013-06-28 08:49:00,
2013-06-28 04:54:00,67.7,67.1,29.58,NNW,348,0.0,4.0,98,0.11,,---,0.28,0.00,VWS V14.00,2013-06-28 08:54:00,
2013-06-28 04:59:00,67.7,67.1,29.58,WNW,290,0.0,5.0,98,0.07,,---,0.29,0.00,VWS V14.00,2013-06-28 08:59:00,
2013-06-28 05:00:00,68.0,67.1,29.58,NE,34,0.0,8.0,97,0.17,,---,0.14,0.00,VWS V14.00,2013-06-28 09:00:00,
2013-06-28 05:04:00,67.7,67.1,29.58,WNW,287,0.0,5.0,98,0.13,,---,0.30,0.00,VWS V14.00,2013-06-28 09:04:00,
2013-06-28 05:09:00,67.7,67.1,29.58,WNW,287,0.0,5.0,98,0.09,,---,0.30,0.00,VWS V14.00,2013-06-28 09:09:00,
2013-06-28 05:14:00,67.6,67.0,29.58,WNW,287,0.0,5.0,98,0.05,,---,0.31,0.00,VWS V14.00,2013-06-28 09:14:00,
2013-06-28 05:19:00,67.5,66.9,29.58,WNW,287,0.0,5.0,98,0.05,,---,0.32,0.00,VWS V14.00,2013-06-28 09:19:00,
2013-06-28 05:24:00,67.4,66.8,29.58,WNW,286,0.0,5.0,98,0.10,,---,0.32,0.00,VWS V14.00,2013-06-28 09:24:00,
2013-06-28 05:29:00,67.4,67.1,29.58,WNW,286,0.0,5.0,99,0.06,,---,0.32,0.00,VWS V14.00,2013-06-28 09:29:00,
2013-06-28 05:30:00,67.7,67.1,29.57,NE,34,0.0,1.0,98,0.17,,---,0.24,0.00,VWS V14.00,2013-06-28 09:30:00,
2013-06-28 05:34:00,67.4,67.1,29.58,WNW,286,0.0,0.0,99,0.04,,---,0.33,0.00,VWS V14.00,2013-06-28 09:34:00,
2013-06-28 05:39:00,67.4,67.1,29.58,WNW,286,0.0,0.0,99,0.04,,---,0.33,0.00,VWS V14.00,2013-06-28 09:39:00,
2013-06-28 05:44:00,67.4,67.1,29.57,WNW,286,0.0,0.0,99,0.08,,---,0.34,0.00,VWS V14.00,2013-06-28 09:44:00,
2013-06-28 05:49:00,67.4,67.1,29.57,WNW,286,0.0,0.0,99,0.07,,---,0.34,0.00,VWS V14.00,2013-06-28 09:49:00,
2013-06-28 05:54:00,67.4,67.1,29.57,WNW,286,0.0,0.0,99,0.05,,---,0.34,0.00,VWS V14.00,2013-06-28 09:54:00,
2013-06-28 05:59:00,67.4,67.1,29.57,West,264,0.0,0.0,99,0.04,,---,0.35,0.00,VWS V14.00,2013-06-28 09:59:00,
2013-06-28 06:00:00,67.7,67.1,29.58,WNW,290,0.0,5.0,98,0.13,,---,0.29,0.00,VWS V14.00,2013-06-28 10:00:00,
2013-06-28 06:04:00,67.4,67.1,29.57,West,264,0.0,0.0,99,0.04,,---,0.35,0.00,VWS V14.00,2013-06-28 10:04:00,
2013-06-28 06:09:00,67.4,67.1,29.57,West,264,0.0,0.0,99,0.06,,---,0.36,0.00,VWS V14.00,2013-06-28 10:09:00,
2013-06-28 06:14:00,67.4,67.1,29.57,West,264,0.0,0.0,99,0.06,,---,0.36,0.00,VWS V14.00,2013-06-28 10:14:00,
2013-06-28 06:19:00,67.4,67.1,29.57,West,264,0.0,0.0,99,0.05,,---,0.36,5.00,VWS V14.00,2013-06-28 10:19:00,
2013-06-28 06:24:00,67.5,67.2,29.57,West,264,0.0,0.0,99,0.00,,---,0.36,5.00,VWS V14.00,2013-06-28 10:24:00,
2013-06-28 06:29:00,67.5,67.2,29.57,West,264,0.0,0.0,99,0.00,,---,0.37,9.00,VWS V14.00,2013-06-28 10:29:00,
2013-06-28 06:30:00,67.4,67.1,29.58,WNW,286,0.0,5.0,99,0.05,,---,0.32,0.00,VWS V14.00,2013-06-28 10:30:00,
2013-06-28 06:34:00,67.5,67.2,29.57,WSW,251,0.0,1.0,99,0.00,,---,0.37,16.00,VWS V14.00,2013-06-28 10:34:00,
2013-06-28 06:40:00,67.6,67.3,29.57,WSW,251,0.0,1.0,99,0.05,,---,0.38,16.00,VWS V14.00,2013-06-28 10:40:00,
2013-06-28 06:45:00,67.6,67.3,29.57,WSW,251,0.0,1.0,99,0.05,,---,0.38,19.00,VWS V14.00,2013-06-28 10:45:00,
2013-06-28 06:50:00,67.7,67.4,29.57,WSW,251,0.0,1.0,99,0.05,,---,0.38,18.00,VWS V14.00,2013-06-28 10:50:00,
2013-06-28 06:55:00,67.8,67.5,29.57,WSW,251,0.0,1.0,99,0.04,,---,0.38,28.00,VWS V14.00,2013-06-28 10:55:00,
2013-06-28 07:00:00,67.9,67.6,29.57,WSW,251,0.0,1.0,99,0.00,,---,0.38,33.00,VWS V14.00,2013-06-28 11:00:00,
2013-06-28 07:05:00,68.0,67.7,29.57,WSW,251,0.0,0.0,99,0.00,,---,0.39,39.00,VWS V14.00,2013-06-28 11:05:00,
2013-06-28 07:10:00,68.1,67.8,29.57,WSW,251,0.0,0.0,99,0.00,,---,0.39,35.00,VWS V14.00,2013-06-28 11:10:00,
2013-06-28 07:15:00,68.2,67.9,29.57,WSW,251,0.0,0.0,99,0.05,,---,0.40,37.00,VWS V14.00,2013-06-28 11:15:00,
2013-06-28 07:20:00,68.3,68.0,29.57,WSW,240,0.0,0.0,99,0.05,,---,0.40,79.00,VWS V14.00,2013-06-28 11:20:00,
2013-06-28 07:25:00,68.5,68.2,29.57,WSW,241,0.0,0.0,99,0.05,,---,0.40,100.00,VWS V14.00,2013-06-28 11:25:00,
2013-06-28 07:30:00,68.6,68.3,29.57,WSW,241,0.0,0.0,99,0.04,,---,0.40,109.00,VWS V14.00,2013-06-28 11:30:00,
2013-06-28 07:35:00,68.9,68.6,29.57,WSW,241,0.0,2.0,99,0.00,,---,0.40,90.00,VWS V14.00,2013-06-28 11:35:00,
2013-06-28 07:40:00,69.1,68.8,29.57,WSW,241,0.0,2.0,99,0.00,,---,0.41,81.00,VWS V14.00,2013-06-28 11:40:00,
2013-06-28 07:45:00,69.2,68.9,29.56,WSW,241,0.0,2.0,99,0.00,,---,0.41,100.00,VWS V14.00,2013-06-28 11:45:00,
2013-06-28 07:50:00,69.3,69.0,29.56,WSW,241,0.0,2.0,99,0.00,,---,0.41,40.00,VWS V14.00,2013-06-28 11:50:00,
2013-06-28 07:55:00,69.3,69.0,29.56,WSW,241,0.0,2.0,99,0.04,,---,0.42,26.00,VWS V14.00,2013-06-28 11:55:00,
2013-06-28 08:00:00,69.3,69.0,29.56,WSW,241,0.0,2.0,99,0.04,,---,0.42,12.00,VWS V14.00,2013-06-28 12:00:00,
2013-06-28 08:05:00,69.2,68.9,29.57,WSW,241,1.0,3.0,99,0.04,,---,0.42,0.00,VWS V14.00,2013-06-28 12:05:00,
2013-06-28 08:10:00,69.0,68.7,29.59,SSW,209,5.0,9.0,99,0.04,,---,0.42,0.00,VWS V14.00,2013-06-28 12:10:00,
2013-06-28 08:15:00,67.3,66.4,29.58,WNW,294,4.0,13.0,97,0.00,,---,0.42,5.00,VWS V14.00,2013-06-28 12:15:00,
2013-06-28 08:20:00,66.4,65.2,29.57,West,277,0.0,13.0,96,0.00,,---,0.43,11.00,VWS V14.00,2013-06-28 12:20:00,
2013-06-28 08:25:00,66.1,65.2,29.56,West,277,0.0,13.0,97,0.00,,---,0.43,23.00,VWS V14.00,2013-06-28 12:25:00,
2013-06-28 08:30:00,66.0,65.4,29.56,West,277,0.0,13.0,98,0.00,,---,0.43,39.00,VWS V14.00,2013-06-28 12:30:00,
2013-06-28 08:35:00,66.0,65.4,29.56,West,277,0.0,0.0,98,0.19,,---,0.65,63.00,VWS V14.00,2013-06-28 12:35:00,
2013-06-28 08:40:00,66.1,65.5,29.56,WSW,244,0.0,0.0,98,0.07,,---,0.65,107.00,VWS V14.00,2013-06-28 12:40:00,
2013-06-28 08:45:00,66.3,65.7,29.56,WSW,244,0.0,0.0,98,0.05,,---,0.65,144.00,VWS V14.00,2013-06-28 12:45:00,
2013-06-28 08:50:00,66.6,66.3,29.56,WSW,249,0.0,0.0,99,0.00,,---,0.65,193.00,VWS V14.00,2013-06-28 12:50:00,
2013-06-28 08:55:00,66.8,66.5,29.56,WSW,249,0.0,0.0,99,0.00,,---,0.65,135.00,VWS V14.00,2013-06-28 12:55:00,
2013-06-28 09:00:00,67.0,66.7,29.56,WSW,248,0.0,2.0,99,0.00,,---,0.65,176.00,VWS V14.00,2013-06-28 13:00:00,
2013-06-28 09:05:00,67.3,67.0,29.56,WSW,248,0.0,1.0,99,0.00,,---,0.65,223.00,VWS V14.00,2013-06-28 13:05:00,
2013-06-28 09:11:00,67.4,67.1,29.56,WSW,248,0.0,1.0,99,0.00,,---,0.65,239.00,VWS V14.00,2013-06-28 13:11:00,
2013-06-28 09:16:00,67.7,67.4,29.56,WSW,248,0.0,1.0,99,0.00,,---,0.65,202.00,VWS V14.00,2013-06-28 13:16:00,
2013-06-28 09:21:00,68.0,67.7,29.56,WSW,248,0.0,1.0,99,0.00,,---,0.65,204.00,VWS V14.00,2013-06-28 13:21:00,
2013-06-28 09:26:00,68.5,68.2,29.55,WSW,248,0.0,1.0,99,0.00,,---,0.65,292.00,VWS V14.00,2013-06-28 13:26:00,
2013-06-28 09:30:00,66.0,65.4,29.56,West,277,0.0,13.0,98,0.05,,---,0.43,40.00,VWS V14.00,2013-06-28 13:30:00,
2013-06-28 09:31:00,68.9,68.6,29.55,WSW,248,0.0,1.0,99,0.00,,---,0.65,571.00,VWS V14.00,2013-06-28 13:31:00,
2013-06-28 09:36:00,69.2,68.9,29.55,WSW,248,0.0,0.0,99,0.00,,---,0.65,250.00,VWS V14.00,2013-06-28 13:36:00,
2013-06-28 09:41:00,69.5,69.2,29.55,WSW,247,0.0,3.0,99,0.00,,---,0.65,207.00,VWS V14.00,2013-06-28 13:41:00,
2013-06-28 09:46:00,69.6,69.3,29.54,SW,228,2.0,3.0,99,0.00,,---,0.65,265.00,VWS V14.00,2013-06-28 13:46:00,
2013-06-28 09:51:00,69.7,69.4,29.54,SW,232,0.0,4.0,99,0.00,,---,0.65,248.00,VWS V14.00,2013-06-28 13:51:00,
2013-06-28 09:56:00,70.0,69.7,29.54,SW,227,0.0,4.0,99,0.00,,---,0.65,271.00,VWS V14.00,2013-06-28 13:56:00,
2013-06-28 10:00:00,67.1,66.8,29.56,WSW,248,0.0,2.0,99,0.00,,---,0.65,176.00,VWS V14.00,2013-06-28 14:00:00,
2013-06-28 10:01:00,70.6,70.3,29.54,WSW,257,3.0,4.0,99,0.00,,---,0.65,376.00,VWS V14.00,2013-06-28 14:01:00,
2013-06-28 10:06:00,71.0,70.7,29.54,WSW,246,2.0,8.0,99,0.00,,---,0.65,865.00,VWS V14.00,2013-06-28 14:06:00,
2013-06-28 10:11:00,71.2,70.9,29.54,SSW,213,0.0,8.0,99,0.00,,---,0.65,167.00,VWS V14.00,2013-06-28 14:11:00,
2013-06-28 10:16:00,71.0,70.4,29.54,WSW,256,1.0,8.0,98,0.00,,---,0.65,193.00,VWS V14.00,2013-06-28 14:16:00,
2013-06-28 10:21:00,70.9,70.0,29.53,West,271,4.0,8.0,97,0.00,,---,0.65,330.00,VWS V14.00,2013-06-28 14:21:00,
2013-06-28 10:26:00,70.9,70.0,29.54,WSW,250,0.0,8.0,97,0.00,,---,0.65,264.00,VWS V14.00,2013-06-28 14:26:00,
2013-06-28 10:30:00,68.9,68.6,29.55,WSW,248,0.0,1.0,99,0.00,,---,0.65,571.00,VWS V14.00,2013-06-28 14:30:00,
2013-06-28 10:31:00,71.2,70.3,29.54,West,262,3.0,8.0,97,0.00,,---,0.65,387.00,VWS V14.00,2013-06-28 14:31:00,
2013-06-28 10:36:00,71.6,70.4,29.54,South,174,2.0,4.0,96,0.00,,---,0.65,499.00,VWS V14.00,2013-06-28 14:36:00,
2013-06-28 10:41:00,71.8,70.3,29.54,SW,217,0.0,4.0,95,0.00,,---,0.65,160.00,VWS V14.00,2013-06-28 14:41:00,
2013-06-28 10:46:00,71.7,69.9,29.54,SSW,202,5.0,7.0,94,0.00,,---,0.65,163.00,VWS V14.00,2013-06-28 14:46:00,
2013-06-28 10:51:00,71.7,69.3,29.54,West,260,2.0,11.0,92,0.00,,---,0.65,267.00,VWS V14.00,2013-06-28 14:51:00,
2013-06-28 10:56:00,71.9,70.1,29.53,West,259,1.0,11.0,94,0.00,,---,0.65,355.00,VWS V14.00,2013-06-28 14:56:00,
2013-06-28 11:00:00,70.6,70.3,29.54,West,269,3.0,4.0,99,0.00,,---,0.65,376.00,VWS V14.00,2013-06-28 15:00:00,
2013-06-28 11:01:00,72.1,69.7,29.53,WSW,257,3.0,6.0,92,0.00,,---,0.65,290.00,VWS V14.00,2013-06-28 15:01:00,
2013-06-28 11:06:00,72.2,69.4,29.53,West,263,0.0,7.0,91,0.00,,---,0.65,647.00,VWS V14.00,2013-06-28 15:06:00,
2013-06-28 11:11:00,72.9,70.1,29.53,SSW,213,1.0,7.0,91,0.00,,---,0.65,469.00,VWS V14.00,2013-06-28 15:11:00,
2013-06-28 11:16:00,73.4,70.6,29.53,WSW,246,1.0,7.0,91,0.00,,---,0.65,457.00,VWS V14.00,2013-06-28 15:16:00,
2013-06-28 11:21:00,74.1,71.3,29.53,SW,233,3.0,7.0,91,0.00,,---,0.65,1007.00,VWS V14.00,2013-06-28 15:21:00,
2013-06-28 11:26:00,74.9,71.1,29.53,SSW,198,1.0,7.0,88,0.00,,---,0.65,981.00,VWS V14.00,2013-06-28 15:26:00,
2013-06-28 11:30:00,71.2,70.3,29.54,West,262,3.0,8.0,97,0.00,,---,0.65,387.00,VWS V14.00,2013-06-28 15:30:00,
2013-06-28 11:31:00,75.3,70.5,29.52,SW,236,2.0,2.0,85,0.00,,---,0.65,413.00,VWS V14.00,2013-06-28 15:31:00,
2013-06-28 11:36:00,75.4,71.3,29.52,WSW,258,2.0,6.0,87,0.00,,---,0.65,376.00,VWS V14.00,2013-06-28 15:36:00,
2013-06-28 11:41:00,75.5,71.0,29.52,West,262,3.0,10.0,86,0.00,,---,0.65,302.00,VWS V14.00,2013-06-28 15:41:00,
2013-06-28 11:46:00,75.3,70.1,29.52,West,278,4.0,10.0,84,0.00,,---,0.65,221.00,VWS V14.00,2013-06-28 15:46:00,
2013-06-28 11:51:00,75.3,71.2,29.52,SW,216,1.0,10.0,87,0.00,,---,0.65,1079.00,VWS V14.00,2013-06-28 15:51:00,
2013-06-28 11:56:00,75.9,72.1,29.52,SW,226,0.0,10.0,88,0.00,,---,0.65,1106.00,VWS V14.00,2013-06-28 15:56:00,
2013-06-28 12:00:00,72.1,69.7,29.53,West,264,6.0,11.0,92,0.00,,---,0.65,290.00,VWS V14.00,2013-06-28 16:00:00,
2013-06-28 12:01:00,76.6,70.7,29.52,West,263,1.0,2.0,82,0.00,,---,0.65,288.00,VWS V14.00,2013-06-28 16:01:00,
2013-06-28 12:06:00,76.6,70.7,29.51,WSW,258,3.0,8.0,82,0.00,,---,0.65,390.00,VWS V14.00,2013-06-28 16:06:00,
2013-06-28 12:12:00,76.7,71.5,29.51,NW,309,2.0,8.0,84,0.00,,---,0.65,388.00,VWS V14.00,2013-06-28 16:12:00,
2013-06-28 12:17:00,77.0,71.4,29.51,NW,309,5.0,8.0,83,0.00,,---,0.65,1009.00,VWS V14.00,2013-06-28 16:17:00,
2013-06-28 12:22:00,77.6,71.3,29.51,WNW,303,5.0,8.0,81,0.00,,---,0.65,1114.00,VWS V14.00,2013-06-28 16:22:00,
2013-06-28 12:27:00,78.3,73.1,29.51,SW,224,1.0,8.0,84,0.00,,---,0.65,1127.00,VWS V14.00,2013-06-28 16:27:00,
2013-06-28 12:30:00,75.3,70.5,29.52,WSW,247,1.0,10.0,85,0.00,,---,0.65,413.00,VWS V14.00,2013-06-28 16:30:00,
2013-06-28 12:32:00,78.9,72.6,29.50,SE,128,0.0,4.0,81,0.00,,---,0.65,1183.00,VWS V14.00,2013-06-28 16:32:00,
2013-06-28 12:37:00,79.2,72.1,29.51,WSW,257,2.0,6.0,79,0.00,,---,0.65,192.00,VWS V14.00,2013-06-28 16:37:00,
2013-06-28 12:42:00,78.4,71.0,29.51,West,259,0.0,7.0,78,0.00,,---,0.65,213.00,VWS V14.00,2013-06-28 16:42:00,
2013-06-28 12:47:00,77.8,70.8,29.50,West,259,0.0,7.0,79,0.00,,---,0.65,202.00,VWS V14.00,2013-06-28 16:47:00,
2013-06-28 12:52:00,77.4,70.4,29.49,SSE,159,2.0,7.0,79,0.00,,---,0.65,209.00,VWS V14.00,2013-06-28 16:52:00,
2013-06-28 12:57:00,77.0,70.7,29.49,West,261,1.0,8.0,81,0.00,,---,0.65,322.00,VWS V14.00,2013-06-28 16:57:00,
2013-06-28 13:00:00,76.6,72.4,29.52,West,263,0.0,10.0,87,0.00,,---,0.65,301.00,VWS V14.00,2013-06-28 17:00:00,
2013-06-28 13:02:00,76.8,70.2,29.49,South,170,7.0,7.0,80,0.00,,---,0.65,197.00,VWS V14.00,2013-06-28 17:02:00,
2013-06-28 13:07:00,76.6,70.0,29.49,West,260,5.0,8.0,80,0.00,,---,0.65,214.00,VWS V14.00,2013-06-28 17:07:00,
2013-06-28 13:12:00,76.4,70.1,29.49,SW,226,2.0,8.0,81,0.00,,---,0.65,197.00,VWS V14.00,2013-06-28 17:12:00,
2013-06-28 13:17:00,76.3,69.7,29.50,West,275,6.0,8.0,80,0.00,,---,0.65,109.00,VWS V14.00,2013-06-28 17:17:00,
2013-06-28 13:22:00,76.0,70.1,29.51,West,274,4.0,8.0,82,0.00,,---,0.65,70.00,VWS V14.00,2013-06-28 17:22:00,
2013-06-28 13:27:00,75.7,69.5,29.51,WNW,296,0.0,8.0,81,0.00,,---,0.65,44.00,VWS V14.00,2013-06-28 17:27:00,
2013-06-28 13:30:00,78.9,72.6,29.50,SE,126,4.0,8.0,81,0.00,,---,0.65,1183.00,VWS V14.00,2013-06-28 17:30:00,
2013-06-28 13:32:00,74.8,66.0,29.51,NE,54,7.0,13.0,74,0.00,,---,0.65,23.00,VWS V14.00,2013-06-28 17:32:00,
2013-06-28 13:37:00,72.5,64.9,29.52,North,9,3.0,13.0,77,0.00,,---,0.65,12.00,VWS V14.00,2013-06-28 17:37:00,
2013-06-28 13:42:00,70.4,64.3,29.52,NNE,30,3.0,13.0,81,0.00,,---,0.65,19.00,VWS V14.00,2013-06-28 17:42:00,
2013-06-28 13:47:00,69.0,64.0,29.53,NE,52,3.0,13.0,84,0.00,,---,0.66,11.00,VWS V14.00,2013-06-28 17:47:00,
2013-06-28 13:52:00,67.9,63.9,29.52,North,355,0.0,13.0,87,0.00,,---,0.66,5.00,VWS V14.00,2013-06-28 17:52:00,
2013-06-28 13:57:00,67.1,63.8,29.54,West,267,1.0,13.0,89,0.51,,---,0.70,16.00,VWS V14.00,2013-06-28 17:57:00,
2013-06-28 14:00:00,76.9,70.3,29.49,WSW,252,1.0,8.0,80,0.00,,---,0.65,202.00,VWS V14.00,2013-06-28 18:00:00,
2013-06-28 14:02:00,66.5,64.1,29.54,West,267,0.0,0.0,92,0.11,,---,0.70,25.00,VWS V14.00,2013-06-28 18:02:00,
2013-06-28 14:07:00,66.2,64.1,29.54,SSE,168,6.0,6.0,93,0.06,,---,0.70,23.00,VWS V14.00,2013-06-28 18:07:00,
2013-06-28 14:12:00,66.1,64.3,29.53,WSW,255,0.0,6.0,94,0.04,,---,0.71,30.00,VWS V14.00,2013-06-28 18:12:00,
2013-06-28 14:17:00,66.0,64.5,29.53,WSW,254,0.0,6.0,95,0.04,,---,0.71,42.00,VWS V14.00,2013-06-28 18:17:00,
2013-06-28 14:22:00,65.9,64.4,29.53,SSW,213,6.0,8.0,95,0.08,,---,0.72,98.00,VWS V14.00,2013-06-28 18:22:00,
2013-06-28 14:27:00,65.8,64.0,29.51,WSW,258,0.0,8.0,94,0.07,,---,0.72,199.00,VWS V14.00,2013-06-28 18:27:00,
2013-06-28 14:30:00,75.1,67.0,29.51,NNW,335,8.0,15.0,76,0.00,,---,0.65,32.00,VWS V14.00,2013-06-28 18:30:00,
2013-06-28 14:32:00,66.0,64.5,29.49,NE,44,0.0,1.0,95,0.06,,---,0.73,362.00,VWS V14.00,2013-06-28 18:32:00,
2013-06-28 14:37:00,66.6,65.7,29.50,SSW,209,2.0,5.0,97,0.08,,---,0.74,443.00,VWS V14.00,2013-06-28 18:37:00,
2013-06-28 14:42:00,67.1,66.2,29.50,West,265,2.0,6.0,97,0.08,,---,0.74,763.00,VWS V14.00,2013-06-28 18:42:00,
2013-06-28 14:47:00,67.4,66.2,29.51,West,277,6.0,7.0,96,0.05,,---,0.74,383.00,VWS V14.00,2013-06-28 18:47:00,
2013-06-28 14:52:00,67.2,65.4,29.52,West,259,2.0,11.0,94,0.04,,---,0.74,323.00,VWS V14.00,2013-06-28 18:52:00,
2013-06-28 14:57:00,67.3,65.5,29.51,West,263,2.0,11.0,94,0.00,,---,0.74,512.00,VWS V14.00,2013-06-28 18:57:00,
2013-06-28 15:00:00,66.6,63.9,29.54,West,267,0.0,13.0,91,0.13,,---,0.70,25.00,VWS V14.00,2013-06-28 19:00:00,
2013-06-28 15:02:00,67.5,65.7,29.52,WSW,254,0.0,2.0,94,0.00,,---,0.74,468.00,VWS V14.00,2013-06-28 19:02:00,
2013-06-28 15:07:00,67.9,66.4,29.51,SW,231,2.0,4.0,95,0.00,,---,0.74,323.00,VWS V14.00,2013-06-28 19:07:00,
2013-06-28 15:12:00,67.9,65.8,29.51,SW,219,0.0,4.0,93,0.00,,---,0.74,272.00,VWS V14.00,2013-06-28 19:12:00,
2013-06-28 15:17:00,67.7,65.3,29.51,South,169,0.0,7.0,92,0.00,,---,0.74,272.00,VWS V14.00,2013-06-28 19:17:00,
2013-06-28 15:23:00,67.8,65.4,29.51,SSE,167,0.0,7.0,92,0.00,,---,0.74,302.00,VWS V14.00,2013-06-28 19:23:00,
2013-06-28 15:28:00,68.1,66.3,29.50,SSE,153,0.0,7.0,94,0.00,,---,0.74,536.00,VWS V14.00,2013-06-28 19:28:00,
2013-06-28 15:30:00,65.9,64.4,29.49,NE,45,1.0,8.0,95,0.06,,---,0.73,343.00,VWS V14.00,2013-06-28 19:30:00,
2013-06-28 15:33:00,68.6,66.5,29.49,ESE,113,4.0,4.0,93,0.00,,---,0.74,522.00,VWS V14.00,2013-06-28 19:33:00,
2013-06-28 15:38:00,69.2,67.4,29.50,SE,132,1.0,6.0,94,0.00,,---,0.74,916.00,VWS V14.00,2013-06-28 19:38:00,
2013-06-28 15:43:00,69.5,66.8,29.50,WSW,258,3.0,8.0,91,0.00,,---,0.74,861.00,VWS V14.00,2013-06-28 19:43:00,
2013-06-28 15:48:00,70.1,67.7,29.50,SE,130,5.0,11.0,92,0.00,,---,0.74,893.00,VWS V14.00,2013-06-28 19:48:00,
2013-06-28 15:53:00,70.3,66.9,29.50,SSE,153,1.0,11.0,89,0.00,,---,0.74,893.00,VWS V14.00,2013-06-28 19:53:00,
2013-06-28 15:58:00,70.5,67.1,29.50,South,171,2.0,11.0,89,0.00,,---,0.74,388.00,VWS V14.00,2013-06-28 19:58:00,
2013-06-28 16:00:00,67.5,65.7,29.52,WSW,254,0.0,11.0,94,0.00,,---,0.74,483.00,VWS V14.00,2013-06-28 20:00:00,
2013-06-28 16:03:00,70.7,66.7,29.50,SE,143,5.0,6.0,87,0.00,,---,0.74,898.00,VWS V14.00,2013-06-28 20:03:00,
2013-06-28 16:08:00,71.1,67.4,29.49,South,176,6.0,6.0,88,0.00,,---,0.74,800.00,VWS V14.00,2013-06-28 20:08:00,
2013-06-28 16:13:00,71.5,67.4,29.50,East,101,4.0,6.0,87,0.00,,---,0.74,788.00,VWS V14.00,2013-06-28 20:13:00,
2013-06-28 16:18:00,71.7,67.6,29.50,SSE,150,5.0,6.0,87,0.00,,---,0.74,752.00,VWS V14.00,2013-06-28 20:18:00,
2013-06-28 16:23:00,72.1,67.7,29.49,South,170,1.0,6.0,86,0.00,,---,0.74,744.00,VWS V14.00,2013-06-28 20:23:00,
2013-06-28 16:28:00,72.8,68.7,29.49,West,265,1.0,6.0,87,0.00,,---,0.74,722.00,VWS V14.00,2013-06-28 20:28:00,
2013-06-28 16:30:00,68.4,66.6,29.49,South,171,1.0,7.0,94,0.00,,---,0.74,522.00,VWS V14.00,2013-06-28 20:30:00,
2013-06-28 16:33:00,73.4,67.9,29.49,West,263,4.0,6.0,83,0.00,,---,0.74,705.00,VWS V14.00,2013-06-28 20:33:00,
2013-06-28 16:38:00,73.6,68.8,29.48,West,260,3.0,6.0,85,0.00,,---,0.74,336.00,VWS V14.00,2013-06-28 20:38:00,
2013-06-28 16:43:00,73.5,68.4,29.48,South,190,0.0,6.0,84,0.00,,---,0.74,255.00,VWS V14.00,2013-06-28 20:43:00,
2013-06-28 16:48:00,73.3,68.2,29.48,WSW,255,0.0,6.0,84,0.00,,---,0.74,519.00,VWS V14.00,2013-06-28 20:48:00,
2013-06-28 16:53:00,73.4,67.9,29.48,SSE,165,1.0,6.0,83,0.00,,---,0.74,332.00,VWS V14.00,2013-06-28 20:53:00,
2013-06-28 16:58:00,73.6,68.8,29.48,SW,219,0.0,6.0,85,0.00,,---,0.74,383.00,VWS V14.00,2013-06-28 20:58:00,
2013-06-28 17:00:00,70.6,66.9,29.50,SSE,148,5.0,11.0,88,0.00,,---,0.74,904.00,VWS V14.00,2013-06-28 21:00:00,
2013-06-28 17:03:00,74.1,70.0,29.48,ESE,102,2.0,2.0,87,0.00,,---,0.74,693.00,VWS V14.00,2013-06-28 21:03:00,
2013-06-28 17:08:00,74.8,69.7,29.48,SW,235,2.0,5.0,84,0.00,,---,0.74,680.00,VWS V14.00,2013-06-28 21:08:00,
2013-06-28 17:13:00,75.4,69.9,29.48,East,89,0.0,5.0,83,0.00,,---,0.74,204.00,VWS V14.00,2013-06-28 21:13:00,
2013-06-28 17:18:00,75.4,69.9,29.49,ESE,107,0.0,5.0,83,0.00,,---,0.74,248.00,VWS V14.00,2013-06-28 21:18:00,
2013-06-28 17:23:00,75.2,69.3,29.48,SE,134,0.0,5.0,82,0.00,,---,0.74,199.00,VWS V14.00,2013-06-28 21:23:00,
2013-06-28 17:28:00,75.0,69.5,29.49,SE,136,0.0,5.0,83,0.00,,---,0.74,104.00,VWS V14.00,2013-06-28 21:28:00,
2013-06-28 17:30:00,73.3,68.2,29.49,SW,220,1.0,9.0,84,0.00,,---,0.74,715.00,VWS V14.00,2013-06-28 21:30:00,
2013-06-28 17:33:00,74.8,70.0,29.49,ESE,113,0.0,0.0,85,0.00,,---,0.74,79.00,VWS V14.00,2013-06-28 21:33:00,
2013-06-28 17:38:00,74.6,69.8,29.49,ESE,114,0.0,1.0,85,0.00,,---,0.74,33.00,VWS V14.00,2013-06-28 21:38:00,
2013-06-28 17:43:00,73.4,66.9,29.51,NW,317,7.0,21.0,80,0.38,,---,0.76,70.00,VWS V14.00,2013-06-28 21:43:00,
2013-06-28 17:48:00,70.8,65.0,29.51,NW,309,5.0,21.0,82,0.09,,---,0.76,123.00,VWS V14.00,2013-06-28 21:48:00,
2013-06-28 17:53:00,69.6,65.2,29.51,WNW,299,6.0,21.0,86,0.05,,---,0.76,188.00,VWS V14.00,2013-06-28 21:53:00,
2013-06-28 17:59:00,69.5,65.1,29.51,WNW,297,6.0,21.0,86,0.04,,---,0.76,552.00,VWS V14.00,2013-06-28 21:59:00,
2013-06-28 18:00:00,73.8,69.4,29.48,SE,127,0.0,6.0,86,0.00,,---,0.74,747.00,VWS V14.00,2013-06-28 22:00:00,
2013-06-28 18:04:00,69.7,64.3,29.51,West,271,12.0,12.0,83,0.00,,---,0.76,199.00,VWS V14.00,2013-06-28 22:04:00,
2013-06-28 18:09:00,69.7,64.7,29.51,WNW,294,4.0,12.0,84,0.00,,---,0.76,524.00,VWS V14.00,2013-06-28 22:09:00,
2013-06-28 18:14:00,70.1,63.7,29.51,NW,311,5.0,12.0,80,0.00,,---,0.76,563.00,VWS V14.00,2013-06-28 22:14:00,
2013-06-28 18:19:00,70.5,64.4,29.51,WNW,290,0.0,13.0,81,0.00,,---,0.76,536.00,VWS V14.00,2013-06-28 22:19:00,
2013-06-28 18:24:00,70.8,63.6,29.51,NW,306,7.0,13.0,78,0.00,,---,0.76,506.00,VWS V14.00,2013-06-28 22:24:00,
2013-06-28 18:29:00,71.0,64.9,29.51,NNW,340,4.0,13.0,81,0.00,,---,0.76,200.00,VWS V14.00,2013-06-28 22:29:00,
2013-06-28 18:30:00,74.9,69.4,29.49,ESE,114,0.0,5.0,83,0.00,,---,0.74,86.00,VWS V14.00,2013-06-28 22:30:00,
2013-06-28 18:34:00,71.2,64.4,29.51,WNW,302,0.0,5.0,79,0.00,,---,0.76,195.00,VWS V14.00,2013-06-28 22:34:00,
2013-06-28 18:39:00,71.3,64.8,29.51,NNW,327,0.0,5.0,80,0.00,,---,0.76,107.00,VWS V14.00,2013-06-28 22:39:00,
2013-06-28 18:44:00,71.4,64.6,29.51,NW,323,2.0,5.0,79,0.00,,---,0.76,70.00,VWS V14.00,2013-06-28 22:44:00,
2013-06-28 18:49:00,71.4,64.6,29.51,WSW,254,1.0,5.0,79,0.00,,---,0.76,62.00,VWS V14.00,2013-06-28 22:49:00,
2013-06-28 18:54:00,71.4,64.9,29.51,WSW,254,0.0,5.0,80,0.00,,---,0.76,51.00,VWS V14.00,2013-06-28 22:54:00,
2013-06-28 18:59:00,71.4,64.6,29.51,WSW,254,0.0,5.0,79,0.00,,---,0.76,54.00,VWS V14.00,2013-06-28 22:59:00,
2013-06-28 19:00:00,69.5,64.1,29.51,West,269,5.0,21.0,83,0.00,,---,0.76,584.00,VWS V14.00,2013-06-28 23:00:00,
2013-06-28 19:04:00,71.4,63.8,29.51,WNW,300,0.0,5.0,77,0.00,,---,0.76,47.00,VWS V14.00,2013-06-28 23:04:00,
2013-06-28 19:09:00,71.3,64.1,29.51,WNW,300,0.0,5.0,78,0.00,,---,0.76,42.00,VWS V14.00,2013-06-28 23:09:00,
2013-06-28 19:14:00,71.3,64.1,29.51,WNW,301,0.0,5.0,78,0.00,,---,0.76,40.00,VWS V14.00,2013-06-28 23:14:00,
2013-06-28 19:19:00,71.3,63.7,29.52,WNW,302,1.0,5.0,77,0.00,,---,0.76,53.00,VWS V14.00,2013-06-28 23:19:00,
2013-06-28 19:24:00,71.3,63.7,29.52,WNW,302,0.0,5.0,77,0.00,,---,0.76,40.00,VWS V14.00,2013-06-28 23:24:00,
2013-06-28 19:29:00,71.3,64.5,29.52,WNW,302,0.0,5.0,79,0.00,,---,0.76,39.00,VWS V14.00,2013-06-28 23:29:00,
2013-06-28 19:30:00,71.1,63.9,29.51,NW,318,2.0,13.0,78,0.00,,---,0.76,195.00,VWS V14.00,2013-06-28 23:30:00,
2013-06-28 19:34:00,71.2,64.0,29.52,WNW,302,0.0,1.0,78,0.00,,---,0.76,44.00,VWS V14.00,2013-06-28 23:34:00,
2013-06-28 19:39:00,71.2,64.4,29.52,WNW,302,0.0,2.0,79,0.00,,---,0.76,40.00,VWS V14.00,2013-06-28 23:39:00,
2013-06-28 19:44:00,71.1,64.3,29.52,WNW,302,0.0,2.0,79,0.00,,---,0.76,42.00,VWS V14.00,2013-06-28 23:44:00,
2013-06-28 19:49:00,71.1,64.6,29.52,WNW,302,0.0,2.0,80,0.00,,---,0.76,33.00,VWS V14.00,2013-06-28 23:49:00,
2013-06-28 19:54:00,71.0,64.5,29.52,WNW,302,0.0,2.0,80,0.00,,---,0.76,25.00,VWS V14.00,2013-06-28 23:54:00,
2013-06-28 19:59:00,70.8,64.3,29.52,WNW,302,0.0,2.0,80,0.00,,---,0.76,18.00,VWS V14.00,2013-06-28 23:59:00,
2013-06-28 20:00:00,71.4,64.6,29.51,WSW,254,0.0,5.0,79,0.00,,---,0.76,53.00,VWS V14.00,2013-06-29 00:00:00,
2013-06-28 20:04:00,70.5,64.4,29.52,SE,138,0.0,1.0,81,0.00,,---,0.76,18.00,VWS V14.00,2013-06-29 00:04:00,
2013-06-28 20:09:00,70.2,64.8,29.52,SE,138,0.0,1.0,83,0.00,,---,0.76,16.00,VWS V14.00,2013-06-29 00:09:00,
2013-06-28 20:14:00,69.9,64.8,29.52,SE,138,0.0,1.0,84,0.00,,---,0.76,16.00,VWS V14.00,2013-06-29 00:14:00,
2013-06-28 20:19:00,69.5,65.1,29.52,SE,138,0.0,1.0,86,0.00,,---,0.76,18.00,VWS V14.00,2013-06-29 00:19:00,
2013-06-28 20:24:00,69.1,64.7,29.52,SE,138,0.0,1.0,86,0.00,,---,0.76,21.00,VWS V14.00,2013-06-29 00:24:00,
2013-06-28 20:29:00,68.7,64.7,29.52,SE,138,0.0,1.0,87,0.00,,---,0.76,18.00,VWS V14.00,2013-06-29 00:29:00,
2013-06-28 20:30:00,71.3,64.5,29.52,WNW,302,0.0,5.0,79,0.00,,---,0.76,40.00,VWS V14.00,2013-06-29 00:30:00,
2013-06-28 20:34:00,68.4,64.7,29.52,SE,138,0.0,0.0,88,0.00,,---,0.76,14.00,VWS V14.00,2013-06-29 00:34:00,
2013-06-28 20:39:00,68.0,64.3,29.52,SE,138,0.0,0.0,88,0.00,,---,0.76,9.00,VWS V14.00,2013-06-29 00:39:00,
2013-06-28 20:44:00,67.7,64.3,29.52,SE,138,0.0,0.0,89,0.00,,---,0.76,9.00,VWS V14.00,2013-06-29 00:44:00,
2013-06-28 20:49:00,67.3,64.3,29.51,SE,138,0.0,0.0,90,0.00,,---,0.76,9.00,VWS V14.00,2013-06-29 00:49:00,
2013-06-28 20:55:00,67.0,64.0,29.52,SE,138,0.0,0.0,90,0.00,,---,0.76,0.00,VWS V14.00,2013-06-29 00:55:00,
2013-06-28 21:00:00,66.6,63.9,29.52,SE,138,0.0,0.0,91,0.00,,---,0.76,0.00,VWS V14.00,2013-06-29 01:00:00,
2013-06-28 21:05:00,66.4,64.0,29.52,SE,138,0.0,0.0,92,0.00,,---,0.76,0.00,VWS V14.00,2013-06-29 01:05:00,
2013-06-28 21:10:00,66.1,63.7,29.53,SE,138,0.0,0.0,92,0.00,,---,0.76,0.00,VWS V14.00,2013-06-29 01:10:00,
2013-06-28 21:15:00,65.8,63.7,29.53,SE,138,0.0,1.0,93,0.00,,---,0.76,0.00,VWS V14.00,2013-06-29 01:15:00,
2013-06-28 21:20:00,65.6,63.2,29.53,SE,138,0.0,1.0,92,0.00,,---,0.76,0.00,VWS V14.00,2013-06-29 01:20:00,
2013-06-28 21:25:00,65.4,63.3,29.54,SE,138,0.0,1.0,93,0.00,,---,0.76,0.00,VWS V14.00,2013-06-29 01:25:00,
2013-06-28 21:30:00,65.2,63.1,29.53,SE,138,0.0,1.0,93,0.00,,---,0.76,0.00,VWS V14.00,2013-06-29 01:30:00,
2013-06-28 21:35:00,64.9,62.8,29.54,SE,138,0.0,0.0,93,0.00,,---,0.76,0.00,VWS V14.00,2013-06-29 01:35:00,
2013-06-28 21:40:00,64.7,62.9,29.55,SE,138,0.0,0.0,94,0.00,,---,0.76,0.00,VWS V14.00,2013-06-29 01:40:00,
2013-06-28 21:45:00,64.5,62.7,29.54,SE,138,0.0,0.0,94,0.00,,---,0.76,0.00,VWS V14.00,2013-06-29 01:45:00,
2013-06-28 21:50:00,64.4,62.9,29.54,SE,138,0.0,0.0,95,0.00,,---,0.76,0.00,VWS V14.00,2013-06-29 01:50:00,
2013-06-28 21:55:00,64.3,62.8,29.55,SE,138,0.0,0.0,95,0.00,,---,0.76,0.00,VWS V14.00,2013-06-29 01:55:00,
2013-06-28 22:00:00,64.1,62.6,29.55,SE,138,0.0,0.0,95,0.00,,---,0.76,0.00,VWS V14.00,2013-06-29 02:00:00,
2013-06-28 22:05:00,63.9,62.4,29.54,SE,138,0.0,0.0,95,0.00,,---,0.76,0.00,VWS V14.00,2013-06-29 02:05:00,
2013-06-28 22:10:00,63.7,62.5,29.55,SE,138,0.0,0.0,96,0.00,,---,0.76,0.00,VWS V14.00,2013-06-29 02:10:00,
2013-06-28 22:15:00,63.7,62.5,29.54,SE,138,0.0,0.0,96,0.00,,---,0.76,0.00,VWS V14.00,2013-06-29 02:15:00,
2013-06-28 22:20:00,63.7,62.5,29.54,SE,138,0.0,0.0,96,0.00,,---,0.76,0.00,VWS V14.00,2013-06-29 02:20:00,
2013-06-28 22:25:00,63.7,62.5,29.54,SE,138,0.0,0.0,96,0.00,,---,0.76,0.00,VWS V14.00,2013-06-29 02:25:00,
2013-06-28 22:30:00,63.8,62.9,29.54,SE,138,0.0,0.0,97,0.00,,---,0.76,0.00,VWS V14.00,2013-06-29 02:30:00,
2013-06-28 22:35:00,64.0,63.1,29.53,SE,138,0.0,0.0,97,0.00,,---,0.76,0.00,VWS V14.00,2013-06-29 02:35:00,
2013-06-28 22:40:00,64.2,63.6,29.54,SE,138,0.0,0.0,98,0.00,,---,0.76,0.00,VWS V14.00,2013-06-29 02:40:00,
2013-06-28 22:45:00,64.5,63.9,29.54,SE,138,0.0,1.0,98,0.00,,---,0.76,0.00,VWS V14.00,2013-06-29 02:45:00,
2013-06-28 22:50:00,64.7,64.1,29.54,SE,138,0.0,2.0,98,0.00,,---,0.76,0.00,VWS V14.00,2013-06-29 02:50:00,
2013-06-28 22:55:00,64.9,64.3,29.53,West,263,0.0,3.0,98,0.00,,---,0.76,0.00,VWS V14.00,2013-06-29 02:55:00,
2013-06-28 23:00:00,64.1,62.6,29.55,SE,138,0.0,0.0,95,0.00,,---,0.76,0.00,VWS V14.00,2013-06-29 03:00:00,
2013-06-28 23:01:00,65.0,64.4,29.53,West,263,0.0,3.0,98,0.00,,---,0.76,0.00,VWS V14.00,2013-06-29 03:01:00,
2013-06-28 23:06:00,65.2,64.6,29.53,West,263,0.0,1.0,98,0.00,,---,0.76,0.00,VWS V14.00,2013-06-29 03:06:00,
2013-06-28 23:11:00,65.2,64.6,29.53,West,263,0.0,1.0,98,0.00,,---,0.76,0.00,VWS V14.00,2013-06-29 03:11:00,
2013-06-28 23:16:00,65.2,64.3,29.53,West,263,1.0,1.0,97,0.00,,---,0.76,0.00,VWS V14.00,2013-06-29 03:16:00,
2013-06-28 23:21:00,65.2,64.6,29.53,West,263,0.0,1.0,98,0.00,,---,0.76,0.00,VWS V14.00,2013-06-29 03:21:00,
2013-06-28 23:26:00,65.2,64.6,29.53,West,263,0.0,1.0,98,0.00,,---,0.76,0.00,VWS V14.00,2013-06-29 03:26:00,
2013-06-28 23:30:00,63.8,62.9,29.54,SE,138,0.0,0.0,97,0.00,,---,0.76,0.00,VWS V14.00,2013-06-29 03:30:00,
2013-06-28 23:31:00,65.1,64.2,29.53,West,263,0.0,1.0,97,0.00,,---,0.76,0.00,VWS V14.00,2013-06-29 03:31:00,
2013-06-28 23:36:00,65.1,64.2,29.53,West,263,0.0,0.0,97,0.00,,---,0.76,0.00,VWS V14.00,2013-06-29 03:36:00,
2013-06-28 23:41:00,65.1,64.2,29.53,West,263,0.0,0.0,97,0.00,,---,0.76,0.00,VWS V14.00,2013-06-29 03:41:00,
2013-06-28 23:46:00,65.1,64.2,29.53,West,263,0.0,2.0,97,0.00,,---,0.76,0.00,VWS V14.00,2013-06-29 03:46:00,
2013-06-28 23:51:00,65.1,64.2,29.53,West,263,0.0,2.0,97,0.00,,---,0.76,0.00,VWS V14.00,2013-06-29 03:51:00,
2013-06-28 23:56:00,65.1,64.2,29.53,West,263,0.0,2.0,97,0.00,,---,0.76,0.00,VWS V14.00,2013-06-29 03:56:00,